Regional Weather Roundup
Issued by NWS Little Rock, AR

Home | Current Version | Previous Version | Graphics & Text | Print | Product List | Glossary On
Versions: 1 2 3 4 5 6 7 8 9 10 11 12 13 14 15 16 17 18 19 20 21 22 23 24 25 26 27 28 29 30 31 32
000
ASUS44 KLZK 200612
RWRLZK

WEATHER ROUNDUP FOR ARKANSAS
NATIONAL WEATHER SERVICE LITTLE ROCK AR
100 AM CDT THU JUL 20 2017

NOTE: "FAIR" INDICATES FEW OR NO CLOUDS BELOW 12,000 FEET WITH NO
SIGNIFICANT WEATHER AND/OR OBSTRUCTIONS TO VISIBILITY.

ARZ001-003-010-029-200700-
NORTHWEST ARKANSAS

CITY           SKY/WX    TMP DP  RH WIND       PRES   REMARKS
FAYETTEVILLE   CLEAR     72  72 100 CALM      30.13S
6HR MIN TEMP:  72; 6HR MAX TEMP:  88;

FORT SMITH     CLEAR     82  32  16 E3        30.08R
6HR MIN TEMP:  82; 6HR MAX TEMP:  93;

HARRISON       CLEAR     75  70  84 S3        30.14S
6HR MIN TEMP:  75; 6HR MAX TEMP:  88;

BENTONVILLE    CLEAR     79  68  69 CALM      30.13F
6HR MIN TEMP:  79; 6HR MAX TEMP:  90;

ROGERS         CLEAR     77  70  79 SE5       30.14S
6HR MIN TEMP:  77; 6HR MAX TEMP:  91;

SILOAM SPGS    CLEAR     75  68  78 SE3       30.12S
6HR MIN TEMP:  75; 6HR MAX TEMP:  90;

HIGHFILL       CLEAR     76  71  85 CALM      30.13S
6HR MIN TEMP:  76; 6HR MAX TEMP:  91;

$$

ARZ004-005-016-200700-
NORTH CENTRAL ARKANSAS

CITY           SKY/WX    TMP DP  RH WIND       PRES   REMARKS
BATESVILLE     CLEAR     81  72  74 S3        30.11R
6HR MIN TEMP:  79; 6HR MAX TEMP:  91;

FLIPPIN        CLEAR     77  68  73 S3        30.10S
6HR MIN TEMP:  77; 6HR MAX TEMP:  91;

MTN HOME       CLEAR     78  72  81 CALM      30.12S
6HR MIN TEMP:  78; 6HR MAX TEMP:  89;

$$

ARZ040-041-200700-
WEST CENTRAL ARKANSAS

CITY           SKY/WX    TMP DP  RH WIND       PRES   REMARKS
MENA           CLEAR     77  77 100 CALM      30.14S
MOUNT IDA      CLEAR     77  75  93 CALM      30.10S FOG
6HR MIN TEMP:  77; 6HR MAX TEMP:  89;

$$

ARZ009-017-025-026-028-200700-
NORTHEAST ARKANSAS

CITY           SKY/WX    TMP DP  RH WIND       PRES   REMARKS
JONESBORO      CLEAR     78  76  93 CALM      30.09S
6HR MIN TEMP:  78; 6HR MAX TEMP:  93;

WALNUT RIDGE   CLEAR     81  75  83 S3        30.10R HX  86
6HR MIN TEMP:  81; 6HR MAX TEMP:  93;

BLYTHEVILLE    CLEAR     80  75  84 S3        30.10S HX  85
6HR MIN TEMP:  80; 6HR MAX TEMP:  91;

$$

ARZ022-023-033-042-044-200700-
CENTRAL ARKANSAS

CITY           SKY/WX    TMP DP  RH WIND       PRES   REMARKS
LITTLE ROCK    CLEAR     81  77  88 CALM      30.09S HX  88
6HR MIN TEMP:  81; 6HR MAX TEMP:  91;

N LITTLE ROCK    N/A     82  75  79 CALM      30.08S HX  88
6HR MIN TEMP:  82; 6HR MAX TEMP:  91;

JACKSONVILLE   CLEAR     78  77  97 CALM      30.09S
6HR MIN TEMP:  78; 6HR MAX TEMP:  93;

CONWAY           N/A     81  77  89 CALM      30.08S HX  88
SEARCY         CLEAR     77  77 100 CALM      30.11R
6HR MIN TEMP:  77; 6HR MAX TEMP:  92;

HOT SPRINGS    CLEAR     81  76  84 CALM      30.11S HX  87
6HR MIN TEMP:  81; 6HR MAX TEMP:  92;

RUSSELLVILLE   CLEAR     77  76  96 CALM      30.10R
6HR MIN TEMP:  77; 6HR MAX TEMP:  91;

CLINTON        FAIR      75  73  94 CALM      30.12R
$$

ARZ036-200700-
EAST ARKANSAS

CITY           SKY/WX    TMP DP  RH WIND       PRES   REMARKS
WEST MEMPHIS   CLEAR     78  75  90 CALM      30.09R
6HR MIN TEMP:  77; 6HR MAX TEMP:  89; 6HR PCP: TRACE;

$$

ARZ050-053-066-070-073-200700-
SOUTHWEST ARKANSAS

CITY           SKY/WX    TMP DP  RH WIND       PRES   REMARKS
ARKADELPHIA    FAIR      77  77 100 CALM      30.10R
6HR MIN TEMP:  77; 6HR MAX TEMP:  92;

CAMDEN         PTCLDY    77  75  94 CALM      30.09R
TEXARKANA      CLEAR     79  75  87 S5        30.09S
6HR MIN TEMP:  78; 6HR MAX TEMP:  90;

EL DORADO      CLEAR     78  76  93 CALM      30.10R
6HR MIN TEMP:  77; 6HR MAX TEMP:  93;

DE QUEEN       CLEAR     79  79 100 CALM      30.08R FOG
6HR MIN TEMP:  79; 6HR MAX TEMP:  93;

$$

ARZ056-057-069-200700-
SOUTHEAST ARKANSAS

CITY           SKY/WX    TMP DP  RH WIND       PRES   REMARKS
PINE BLUFF     CLEAR     78  75  90 CALM      30.10R
6HR MIN TEMP:  78; 6HR MAX TEMP:  93;

STUTTGART      CLEAR     81  64  57 CALM      30.11S
6HR MIN TEMP:  81; 6HR MAX TEMP:  93;

MONTICELLO     CLEAR     79  76  90 CALM      30.10S
6HR MIN TEMP:  79; 6HR MAX TEMP:  92;


$$






USA.gov is the U.S. government's official web portal to all federal, state and local government web resources and services.